sat.trackr.live / text

‹ back to catalog

STARLINK-5679

NORAD 55467 · 2023-015U

PAYLOAD ACTIVE UNKNOWN

§ Identity

Operator
Country
US
Launch date
2023-02-02
Launch site
AFETR
Launch vehicle
Mass (kg)
RCS (m²)

Purposes: comms

External: N2YO · Heavens-Above · Gunter

§ Orbital elements

Epoch: 2026-05-24T17:23:16.515744Z

Period
94.27 min
Inclination
43.0026°
Eccentricity
0.0001693
Mean motion
15.27574616 rev/d
Perigee alt
481.9 km
Apogee alt
484.2 km
Semi-major
6,861.2 km
B*
-1.3880e-5
RAAN
259.0505°
Arg perigee
271.7062°
Mean anomaly
88.3595°
Rev number
18,235

§ Raw data

STARLINK-56791 55467U 23015U   26144.72449671 -.00000644  00000+0 -13880-4 0  99942 55467  43.0026 259.0505 0001693 271.7062  88.3595 15.27574616182355

JSON: /api/v1/satellites/55467 · /tle

For live sub-satellite position, see the globe view (requires WebGL).

§ Visibility from observer

Set your observer location to see the next 7 days of passes ≥ 10°. The values pass through the URL so the page stays shareable.

No JS? Fill the form by hand. The geolocation button needs JavaScript.